Location: Aalen
(48.8330°N, 10.1000°E)
Time: 20:32:26
(UTC+02:00)

S-56A Canister/Altair - Pass Details

Date: 10 August 2021
Orbit: 632 x 2500 km, 38.9° (Epoch: 19 September)

Event Time Altitude Azimuth Distance (km) Brightness Sun altitude
Rises 18:21:55 0° 276° (W) 5,585 13.4 21.8°
Reaches altitude 10° 18:25:36 10° 270° (W) 4,775 13.9 21.2°
Maximum altitude 18:38:04 40° 208° (SSW) 3,282 11.3 19.2°
Drops below altitude 10° 18:51:16 10° 146° (SE) 5,024 11.4 17.0°
Sets 18:55:18 0° 139° (SE) 5,894 11.6 16.3°
